Date,TemperatureHighF,TemperatureAvgF,TemperatureLowF,DewpointHighF,DewpointAvgF,DewpointLowF,HumidityHigh,HumidityAvg,HumidityLow,PressureMaxIn,PressureMinIn,WindSpeedMaxMPH,WindSpeedAvgMPH,GustSpeedMaxMPH,PrecipitationSumIn
2013-1-1,18,11,7,13,7,-2,91,84,50,30.40,30.24,5,0,6,0.00
2013-1-2,23,13,6,6,2,-5,81,60,41,30.54,30.36,14,4,14,0.00
2013-1-3,27,17,9,1,-4,-11,65,41,23,30.57,30.45,15,3,15,0.00
2013-1-4,32,26,22,8,4,-2,50,40,32,30.15,30.10,16,4,16,0.00
2013-1-5,32,23,16,14,9,2,75,55,42,30.44,30.10,18,6,18,0.00
2013-1-6,42,33,18,10,1,-10,70,26,13,30.43,29.99,16,1,16,0.00
2013-1-7,45,36,24,11,4,-3,51,27,15,29.99,29.78,18,2,18,0.00
2013-1-8,50,36,25,15,7,-7,64,32,16,30.21,29.76,16,3,16,0.00
2013-1-9,33,27,23,15,13,9,70,58,36,30.21,30.12,9,1,9,0.00
2013-1-10,45,33,23,14,11,-3,63,40,13,30.12,29.48,18,2,18,0.00
2013-1-11,35,23,9,20,5,-11,75,46,21,29.82,29.23,24,4,24,0.00
2013-1-12,16,4,-4,-1,-8,-15,85,59,29,30.24,29.82,14,1,14,0.00
2013-1-13,13,2,-5,5,-3,-10,87,79,46,30.44,30.24,13,1,13,0.00
2013-1-14,9,1,-4,6,-2,-7,89,85,82,30.44,30.35,9,1,9,0.00
2013-1-15,26,14,-2,15,2,-14,86,61,36,30.51,30.40,16,5,16,0.00
2013-1-16,42,30,22,20,16,12,73,56,37,30.43,30.31,15,3,15,0.00
2013-1-17,41,29,20,19,15,12,77,57,38,30.52,30.32,12,2,12,0.00
2013-1-18,51,37,28,13,0,-7,49,22,9,30.32,30.05,12,1,12,0.00
2013-1-19,50,37,29,5,2,-3,34,23,11,30.23,30.05,14,2,15,0.00
2013-1-20,43,32,18,13,3,-14,83,32,10,30.21,30.07,20,5,20,0.00
2013-1-21,48,32,15,14,8,-7,91,41,15,30.24,30.13,12,1,12,0.00
2013-1-22,57,43,32,-5,-13,-24,18,9,3,30.13,30.02,18,3,18,0.00
2013-1-23,63,47,34,-3,-19,-36,19,6,2,30.11,30.00,10,1,10,0.00
2013-1-24,48,41,34,21,4,-10,47,24,9,30.01,29.87,11,1,11,0.00
2013-1-25,42,36,29,26,21,15,74,56,46,30.07,29.95,16,2,16,0.00
2013-1-26,49,40,32,30,24,19,79,55,32,30.03,29.61,13,2,13,0.00
2013-1-27,53,41,30,29,23,11,92,53,20,29.68,29.58,15,2,15,0.00
2013-1-28,51,35,22,26,20,12,95,59,22,29.63,29.36,24,5,24,0.00
2013-1-29,22,16,9,20,12,3,94,84,55,30.08,29.55,24,8,24,0.00
2013-1-30,29,15,3,16,8,-1,89,75,52,30.13,30.08,15,4,15,0.00
2013-1-31,27,24,20,18,16,12,82,71,62,30.21,30.12,10,1,10,0.00
2013-2-1,39,27,20,16,12,9,72,54,34,30.26,30.12,20,2,20,0.00
2013-2-2,48,30,17,20,14,7,84,53,21,30.38,30.24,13,2,13,0.00
2013-2-3,52,35,23,18,9,-6,67,38,10,30.33,29.89,10,2,10,0.00
2013-2-4,45,36,30,12,9,8,44,34,22,29.94,29.88,7,1,8,0.00
2013-2-5,46,36,29,16,12,9,53,37,25,30.05,29.85,19,3,19,0.00
2013-2-6,51,40,31,20,16,13,50,38,27,29.85,29.72,14,3,14,0.00
2013-2-7,45,26,23,20,18,16,76,71,36,30.17,29.73,12,2,12,0.01
2013-2-8,43,31,19,22,16,13,79,55,36,30.16,29.74,22,4,22,0.00
2013-2-9,35,26,17,22,18,13,94,75,55,29.74,29.43,23,8,23,0.00
2013-2-10,25,18,11,19,14,7,93,84,59,30.18,29.56,21,6,21,0.00
2013-2-11,16,13,10,13,10,7,92,89,81,30.27,30.15,24,3,24,0.00
2013-2-12,15,12,9,11,9,5,92,87,80,30.27,30.24,4,1,4,0.00
2013-2-13,27,26,26,9,8,7,48,46,44,30.09,30.06,3,0,3,0.00
2013-2-14,33,21,12,19,12,7,91,72,43,30.38,30.04,32,6,32,0.00
2013-2-15,31,18,7,18,12,4,92,78,47,30.50,30.35,23,5,23,0.00
2013-2-16,49,34,12,14,10,3,92,40,21,30.49,30.00,14,3,14,0.00
2013-2-17,35,32,29,5,0,-6,33,26,17,30.00,29.80,10,1,10,0.00
2013-2-18,35,25,17,18,6,-6,92,47,17,30.19,29.80,16,4,16,0.00
2013-2-19,33,23,13,14,10,1,90,59,36,30.19,29.88,16,3,16,0.00
2013-2-20,29,22,16,25,16,10,93,79,57,29.88,29.63,19,4,19,0.00
2013-2-21,16,12,9,14,10,6,91,89,84,30.09,29.69,27,12,27,0.00
2013-2-22,24,16,10,20,14,8,93,89,78,30.16,30.07,14,2,14,0.02
2013-2-23,39,31,21,22,15,7,91,53,29,29.96,29.70,22,4,22,0.01
2013-2-24,22,18,14,20,16,12,94,93,90,30.17,29.69,36,16,36,0.00
2013-2-25,31,18,9,17,11,4,92,76,32,30.24,30.06,21,8,22,0.00
2013-2-26,26,20,15,17,12,4,92,71,43,30.21,29.89,35,10,35,0.00
2013-2-27,27,17,8,14,8,0,92,70,38,30.43,30.20,31,6,31,0.00
2013-2-28,33,23,12,12,3,-4,56,43,26,30.45,30.33,16,5,16,0.00
2013-3-1,28,25,24,18,17,10,75,69,54,30.46,30.37,10,2,10,0.00
2013-3-2,51,39,24,27,19,15,70,45,30,30.46,30.03,10,1,10,0.00
2013-3-3,54,43,33,22,17,11,52,37,20,30.03,29.54,20,2,21,0.00
2013-3-4,39,26,9,25,19,6,94,76,45,30.30,29.53,24,8,24,0.00
2013-3-5,22,14,7,19,11,4,95,89,84,30.47,30.30,7,1,7,0.00
2013-3-6,54,39,21,20,8,1,95,29,17,30.32,29.94,12,1,12,0.00
2013-3-7,42,38,35,23,16,7,61,43,25,29.82,29.79,12,2,12,0.00
2013-3-8,45,36,28,28,23,10,96,60,26,29.79,29.51,13,3,13,0.00
2013-3-9,28,24,17,28,22,13,97,94,83,30.11,29.46,45,20,45,0.00
2013-3-10,30,22,15,17,14,11,92,71,52,30.26,30.11,31,13,31,0.00
2013-3-11,44,34,25,26,18,10,96,54,34,30.22,29.92,17,4,17,0.00
2013-3-12,26,23,22,25,22,21,96,95,95,30.41,30.02,7,2,9,0.00
2013-3-13,54,40,23,29,24,19,97,56,31,30.41,30.22,11,2,12,0.00
2013-3-14,60,48,38,23,19,16,50,33,20,30.22,30.02,16,3,16,0.00
2013-3-15,66,50,41,25,19,12,49,30,15,30.02,29.70,16,2,16,0.00
2013-3-16,48,38,30,31,25,16,94,62,30,29.80,29.67,21,4,21,0.00
2013-3-17,54,36,25,30,22,9,94,63,20,29.79,29.49,22,2,22,0.01
2013-3-18,44,30,17,17,9,3,77,46,19,29.99,29.74,32,3,32,0.00
2013-3-19,32,29,26,15,10,5,56,45,38,30.05,29.95,19,5,19,0.00
2013-3-20,39,38,36,20,20,18,50,48,45,29.91,29.83,11,2,11,0.00
2013-3-21,54,40,32,27,21,14,59,47,23,29.83,29.42,28,2,28,0.00
2013-3-22,36,24,19,23,20,17,94,87,51,29.87,29.63,28,15,28,0.00
2013-3-23,19,11,4,17,8,1,93,90,87,30.41,29.84,34,15,34,0.00
2013-3-24,22,11,3,12,5,0,90,78,48,30.45,30.33,20,6,20,0.00
2013-3-25,29,15,2,14,7,-1,91,72,49,30.52,30.44,15,3,15,0.00
2013-3-26,47,30,10,23,14,6,87,55,28,30.46,30.03,18,3,18,0.00
2013-3-27,49,36,23,27,23,18,87,61,36,30.09,29.98,20,5,20,0.00
2013-3-28,48,32,27,27,24,22,89,76,39,30.09,30.01,13,2,13,0.00
2013-3-29,58,48,39,32,25,20,65,42,24,30.04,29.91,26,4,26,0.00
2013-3-30,60,45,32,34,25,16,95,51,21,30.02,29.85,29,7,29,0.00
2013-3-31,62,43,28,33,23,6,96,55,11,30.02,29.86,18,3,18,0.01
2013-4-1,47,35,26,29,25,20,91,68,47,30.04,29.88,24,5,24,0.00
2013-4-2,32,28,24,32,27,23,98,95,88,30.17,30.01,11,2,11,0.00
2013-4-3,51,36,27,38,26,14,98,73,24,30.19,30.08,22,4,22,0.06
2013-4-4,57,41,31,28,23,18,77,52,23,30.13,30.05,16,5,16,0.00
2013-4-5,64,54,44,28,22,17,54,31,17,30.05,29.53,17,4,18,0.00
2013-4-6,55,44,30,31,24,16,73,46,25,29.79,29.62,18,5,20,0.00
2013-4-7,58,45,32,30,23,14,85,46,18,29.74,29.55,23,3,23,0.00
2013-4-8,60,44,21,31,23,16,96,49,19,29.59,29.22,37,9,37,0.00
2013-4-9,21,8,2,19,6,-1,94,89,85,30.36,29.48,33,19,33,0.00
2013-4-10,20,10,-2,16,6,-5,90,85,76,30.44,30.22,24,8,24,0.00
2013-4-11,48,31,10,35,23,8,95,74,47,30.22,29.89,26,6,26,0.00
2013-4-12,46,32,26,32,28,24,97,85,53,29.95,29.85,16,2,16,0.00
2013-4-13,60,40,26,32,23,13,98,63,16,29.95,29.31,19,2,19,0.00
2013-4-14,48,38,26,31,20,8,96,54,21,29.65,29.31,25,5,25,0.02
2013-4-15,46,28,21,24,15,6,93,62,26,30.01,29.58,26,10,34,0.00
2013-4-16,36,25,20,28,22,18,95,89,67,30.02,29.88,29,8,29,0.00
2013-4-17,27,21,11,25,19,9,96,93,90,30.16,29.88,9,2,9,0.04
2013-4-18,11,11,10,9,9,8,91,91,91,30.17,30.15,0,0,0,0.00
2013-4-19,33,32,31,19,18,17,61,58,54,30.06,30.03,5,0,5,0.02
2013-4-20,51,38,28,31,23,15,95,55,29,30.04,29.85,17,3,17,0.00
2013-4-21,54,41,31,30,24,18,95,54,26,30.01,29.89,18,3,18,0.00
2013-4-22,53,30,15,33,23,13,95,76,29,30.18,29.77,33,10,33,0.00
2013-4-23,26,17,12,22,14,10,94,89,80,30.43,30.15,16,3,16,0.02
2013-4-24,46,30,15,23,16,13,93,60,29,30.42,30.28,15,2,15,0.01
2013-4-25,56,43,27,38,21,13,73,44,24,30.28,29.83,18,4,18,0.01
2013-4-26,58,46,36,27,20,14,66,38,19,30.14,29.89,22,8,22,0.00
2013-4-27,65,51,36,26,18,10,63,32,13,30.13,29.90,21,4,21,0.00
2013-4-28,70,57,43,32,18,11,52,23,11,29.92,29.63,27,3,27,0.00
2013-4-29,74,56,38,32,25,14,68,34,11,29.66,29.43,22,4,22,0.00
2013-4-30,63,51,32,38,28,13,89,45,20,29.68,29.38,24,7,24,0.00
2013-5-1,32,25,17,30,24,15,96,94,90,30.65,29.68,22,11,22,0.03
2013-5-2,36,25,12,23,17,9,93,74,45,30.84,30.56,14,4,14,0.01
2013-5-3,54,38,22,25,20,14,82,50,25,30.57,30.07,20,5,20,0.00
2013-5-4,53,40,28,28,23,19,73,53,33,30.15,29.99,25,4,25,0.00
2013-5-5,48,38,28,21,17,12,63,44,29,30.15,30.05,22,4,22,0.00
2013-5-6,60,45,31,35,26,17,76,48,31,30.12,29.81,18,4,18,0.00
2013-5-7,61,48,38,36,32,27,91,57,28,29.82,29.72,20,5,20,0.00
2013-5-8,39,37,36,36,35,34,95,92,88,29.82,29.78,11,4,11,0.00
2013-5-10,42,40,38,36,35,35,92,85,74,30.20,30.19,9,3,9,0.12
2013-5-11,43,43,42,35,33,32,74,69,66,30.20,30.15,10,2,10,0.08
2013-5-12,68,55,41,38,33,30,69,46,27,30.15,29.95,17,2,17,0.00
2013-5-13,68,56,50,37,32,28,46,39,28,29.97,29.78,14,2,14,0.00
2013-5-14,74,59,51,45,37,32,70,46,23,29.78,29.65,22,4,22,0.02
2013-5-15,70,57,47,47,40,34,90,56,30,29.73,29.64,13,3,13,0.05
2013-5-16,73,59,46,45,36,27,81,47,20,29.67,29.57,23,3,23,0.00
2013-5-17,79,62,46,44,27,8,88,35,8,29.62,29.50,19,3,19,0.00
2013-5-18,67,57,41,36,23,8,79,29,16,29.57,29.45,17,3,17,0.00
2013-5-19,58,47,38,39,33,24,86,61,31,29.72,29.53,20,4,20,0.03
2013-5-20,52,41,35,43,35,26,96,81,50,29.93,29.70,16,4,16,0.18
2013-5-21,58,45,36,36,33,29,94,68,34,29.91,29.77,16,2,16,0.00
2013-5-22,66,52,36,40,34,30,84,55,28,29.84,29.69,19,4,19,0.00
2013-5-23,52,45,41,45,42,39,98,88,67,29.93,29.80,27,7,27,0.00
2013-5-24,77,60,46,52,36,12,99,56,10,29.91,29.69,23,5,23,0.00
2013-5-25,79,64,46,46,25,-3,78,31,5,29.70,29.54,18,3,18,0.00
2013-5-26,80,65,54,42,26,12,65,25,8,29.59,29.46,18,5,18,0.00
2013-5-27,74,61,50,43,26,13,67,30,10,29.54,29.42,24,4,24,0.00
2013-5-28,71,58,44,49,38,25,85,50,24,29.50,29.29,25,5,25,0.00
2013-5-29,58,50,39,46,40,22,96,70,29,29.54,29.28,24,9,24,0.00
2013-5-30,65,52,39,32,24,12,65,38,13,29.67,29.52,32,6,32,0.00
2013-5-31,65,53,42,29,18,10,59,27,13,29.82,29.65,30,6,30,0.00
2013-6-1,59,48,32,37,30,15,88,52,29,30.07,29.82,26,7,26,0.00
2013-6-2,72,57,39,38,32,23,79,44,18,30.07,29.65,20,6,20,0.00
2013-6-3,83,69,56,34,25,15,33,21,9,29.66,29.38,21,3,21,0.00
2013-6-4,72,56,45,51,37,20,97,53,23,29.86,29.51,26,8,26,0.14
2013-6-5,49,44,40,46,42,39,99,95,84,30.05,29.84,26,6,26,0.00
2013-6-6,70,56,39,47,40,31,99,61,25,30.04,29.85,15,2,15,0.00
2013-6-7,71,59,46,44,38,33,72,48,30,29.88,29.60,18,3,18,0.00
2013-6-8,71,60,48,48,39,33,64,47,30,29.74,29.52,27,8,27,0.00
2013-6-9,82,64,43,40,33,26,76,37,14,29.82,29.70,20,5,20,0.00
2013-6-10,88,74,58,35,28,19,32,20,9,29.72,29.47,21,3,21,0.00
2013-6-11,90,76,65,30,23,4,25,15,4,29.50,29.38,33,3,33,0.00
2013-6-16,74,59,50,50,41,34,79,53,24,29.88,29.74,26,5,26,0.15
2013-6-17,71,58,49,53,41,34,91,55,30,29.94,29.82,27,3,27,0.32
2013-6-18,76,59,47,52,46,40,91,65,32,29.90,29.65,25,5,25,0.07
2013-6-19,81,64,48,54,41,9,98,56,11,29.73,29.46,28,6,28,0.00
2013-6-20,86,70,58,42,23,-2,41,19,4,29.56,29.44,27,5,27,0.00
2013-6-21,85,68,53,44,28,10,61,27,6,29.55,29.45,26,3,26,0.00
2013-6-22,82,66,48,48,33,13,82,38,9,29.54,29.42,27,5,27,0.00
2013-6-23,78,64,47,46,40,32,89,47,22,29.67,29.51,28,7,28,0.00
2013-6-24,85,65,48,48,32,11,78,40,7,29.61,29.49,27,3,27,0.00
2013-6-25,85,72,58,26,22,16,25,15,10,29.57,29.49,22,3,22,0.00
2013-6-26,86,76,69,42,35,31,36,23,14,29.70,29.64,21,6,21,0.00
2013-6-27,90,76,64,44,38,25,45,28,11,29.83,29.70,21,6,21,0.00
2013-6-28,89,73,57,54,45,36,85,41,16,29.91,29.71,24,4,25,0.11
2013-6-29,78,65,52,55,49,40,91,58,31,29.91,29.76,21,4,21,0.05
2013-6-30,71,59,51,57,50,43,94,74,51,29.96,29.80,15,2,15,0.27
2013-7-1,64,55,48,55,51,47,97,86,64,30.06,29.95,15,2,16,0.49
2013-7-2,74,60,47,53,46,36,97,65,27,30.06,29.89,21,4,21,0.04
2013-7-3,78,64,51,48,41,31,73,48,20,29.90,29.63,23,3,23,0.00
2013-7-4,81,68,53,45,41,36,71,41,20,29.67,29.57,16,5,20,0.00
2013-7-5,80,66,56,57,47,38,88,53,27,29.59,29.45,17,2,17,0.16
2013-7-6,80,64,56,57,49,42,90,62,30,29.71,29.55,27,3,27,0.11
2013-7-7,80,65,57,56,50,45,84,60,31,29.80,29.68,26,3,26,0.09
2013-7-8,85,71,57,53,46,40,84,45,21,29.80,29.67,16,3,22,0.00
2013-7-9,84,72,59,52,42,35,51,35,18,29.82,29.72,33,3,33,0.00
2013-7-10,81,66,55,58,49,39,93,56,35,29.83,29.70,21,4,21,0.76
2013-7-11,80,67,52,59,54,50,97,65,37,29.83,29.60,25,6,25,0.00
2013-7-12,82,70,59,55,50,44,82,51,31,29.65,29.53,19,5,19,0.00
2013-7-13,84,66,54,58,53,49,93,68,30,29.79,29.65,19,5,21,0.02
2013-7-14,73,63,54,58,54,48,97,74,51,29.87,29.76,25,7,25,1.77
2013-7-15,63,56,50,56,52,42,99,88,62,29.98,29.82,18,4,18,0.04
2013-7-16,68,57,47,53,48,45,94,74,47,30.03,29.92,22,7,22,0.00
2013-7-17,73,62,52,54,50,44,96,70,36,30.02,29.90,25,6,25,0.00
2013-7-18,82,66,52,55,50,45,92,60,33,29.91,29.70,24,7,24,0.00
2013-7-19,75,63,53,57,53,48,91,70,48,29.82,29.75,18,6,18,0.00
2013-7-20,81,66,54,57,52,43,98,66,31,29.80,29.59,19,4,20,0.00
2013-7-21,84,69,54,54,45,29,87,49,16,29.68,29.58,19,3,19,0.00
2013-7-22,84,73,62,48,39,29,45,30,16,29.62,29.56,18,4,18,0.00
2013-7-23,84,73,63,51,39,22,59,32,11,29.72,29.58,18,4,18,0.00
2013-7-24,67,59,48,61,55,45,98,88,58,29.92,29.69,29,4,29,1.10
2013-7-25,72,59,48,56,50,47,98,75,47,30.00,29.83,33,7,33,0.02
2013-7-26,74,63,52,55,49,45,79,61,37,30.01,29.90,17,4,17,0.00
2013-7-27,80,64,52,57,49,41,96,63,26,29.91,29.65,21,4,21,0.03
2013-7-28,66,56,52,60,55,52,99,95,75,29.77,29.61,16,2,16,0.14
2013-7-29,71,60,53,56,53,44,99,80,52,29.95,29.69,16,3,16,0.14
2013-7-30,77,63,50,53,48,42,91,62,35,29.99,29.87,19,2,19,0.05
2013-7-31,77,65,54,56,50,42,92,61,29,29.97,29.84,24,4,24,0.11
2013-8-1,81,64,54,60,52,41,98,71,27,29.90,29.71,15,2,15,0.02
2013-8-6,62,59,55,47,46,45,71,63,56,29.74,29.72,13,3,13,0.00
2013-8-7,63,57,52,56,51,44,97,81,56,29.82,29.70,13,2,13,0.16
2013-8-8,65,56,49,57,51,43,98,86,63,29.94,29.77,20,4,20,0.00
2013-8-9,66,55,46,53,48,42,96,78,55,30.03,29.92,19,2,19,0.20
2013-8-10,75,60,48,59,49,41,98,71,34,30.04,29.90,16,3,16,0.01
2013-8-11,73,59,50,55,48,41,94,67,41,29.94,29.83,21,4,22,0.33
2013-8-12,70,59,52,54,48,42,94,68,47,29.96,29.86,15,3,17,0.00
2013-8-13,70,57,47,53,49,44,96,76,48,30.01,29.89,25,3,25,0.98
2013-8-14,73,60,47,53,47,39,90,66,37,29.99,29.85,16,2,16,0.00
2013-8-15,76,65,53,49,44,37,78,50,28,29.92,29.80,16,3,17,0.00
2013-8-16,79,68,56,51,43,30,84,44,19,29.87,29.79,15,2,15,0.00
2013-8-17,82,70,61,53,44,27,76,41,18,29.84,29.67,20,3,20,0.00
2013-8-18,82,67,57,56,48,34,90,55,20,29.83,29.67,16,2,16,0.09
2013-8-19,81,69,56,53,47,40,84,48,25,29.83,29.73,14,3,14,0.00
2013-8-20,68,63,60,52,44,38,73,50,34,29.75,29.67,6,0,6,0.00
2013-8-21,82,68,58,52,45,36,65,45,25,29.77,29.66,20,4,20,0.00
2013-8-22,78,62,52,59,53,45,97,75,39,29.97,29.75,18,4,18,1.96
2013-8-23,75,63,52,61,51,43,97,67,36,29.96,29.71,21,4,21,0.20
2013-8-24,77,65,55,54,48,40,79,55,32,29.78,29.67,14,3,14,0.00
2013-8-25,78,67,56,55,50,45,81,55,39,29.83,29.76,18,2,18,0.00
2013-8-26,80,69,59,56,50,46,80,53,34,29.80,29.70,17,3,17,0.00
2013-8-27,78,68,56,59,52,46,83,59,41,29.79,29.70,15,4,15,0.00
2013-8-28,82,70,54,55,46,38,81,45,27,29.77,29.69,12,2,12,0.00
2013-8-29,81,67,57,54,47,38,66,50,29,29.80,29.75,13,3,13,0.00
2013-8-31,76,60,57,57,53,48,94,80,37,29.76,29.67,18,2,18,0.27
2013-9-1,68,59,54,61,54,48,96,83,59,29.91,29.75,22,6,22,0.13
2013-9-2,76,65,54,62,55,49,97,72,48,29.90,29.77,13,2,13,0.01
2013-9-3,81,69,59,55,51,46,77,53,31,29.78,29.71,17,3,17,0.00
2013-9-4,79,65,61,58,50,45,66,58,43,29.81,29.75,5,0,5,0.00
2013-9-5,69,68,66,40,40,39,39,37,35,29.80,29.78,14,7,14,0.00
2013-9-6,81,70,63,49,40,36,43,34,25,29.78,29.74,12,1,12,0.00
2013-9-7,70,67,66,41,39,37,40,36,31,29.72,29.70,13,6,13,0.00
2013-9-8,80,70,59,50,44,39,52,40,27,29.71,29.51,19,3,19,0.00
2013-9-9,73,56,52,53,52,42,97,87,34,29.68,29.54,23,12,23,0.01
2013-9-10,66,56,51,56,53,50,98,88,60,29.92,29.67,15,5,15,0.23
2013-9-11,62,56,53,56,54,52,99,94,78,29.96,29.87,12,4,15,0.24
2013-9-12,62,55,52,59,54,52,99,97,87,30.00,29.89,15,5,15,1.60
2013-9-13,62,55,52,57,54,51,99,95,80,29.90,29.69,19,7,24,0.98
2013-9-14,70,57,48,57,51,46,99,81,47,29.74,29.61,14,2,14,0.04
2013-9-15,57,51,49,54,50,47,99,96,86,30.06,29.74,17,6,17,0.14
2013-9-16,58,51,48,56,51,47,99,98,89,30.05,29.91,15,3,15,0.26
2013-9-17,74,61,48,52,47,38,99,65,30,29.93,29.60,16,2,16,0.00
2013-9-18,75,62,53,51,45,40,78,53,32,29.62,29.50,23,2,25,0.03
2013-9-19,57,51,44,47,42,32,86,72,57,29.99,29.58,20,5,20,0.00
2013-9-20,61,51,45,51,46,41,98,83,65,30.00,29.87,15,4,15,0.00
2013-9-21,72,56,46,46,42,35,97,64,29,29.90,29.59,12,1,12,0.01
2013-9-22,50,48,46,46,45,44,95,88,83,29.29,29.26,21,4,21,0.23
2013-9-23,59,48,39,44,36,26,97,67,36,29.95,29.20,25,7,25,0.49
2013-9-24,62,50,41,37,30,20,60,47,31,29.99,29.73,22,4,22,0.00
2013-9-25,73,59,47,37,30,20,65,34,18,29.73,29.30,23,3,23,0.00
2013-9-26,68,58,41,46,33,20,88,43,24,29.44,29.30,22,4,22,0.00
2013-9-27,63,49,33,46,36,28,98,67,35,29.79,29.40,24,6,24,0.00
2013-9-28,33,32,31,32,29,26,97,87,78,29.87,29.79,9,1,9,0.00
2013-9-30,61,60,58,41,39,35,50,45,38,29.59,29.55,7,1,7,0.00
2013-10-2,68,60,43,41,36,30,88,45,27,29.73,29.60,14,5,14,0.00
2013-10-3,66,53,39,44,34,23,97,57,20,29.61,29.43,22,5,22,0.00
2013-10-4,44,38,29,43,37,28,98,97,96,29.65,29.43,23,9,23,0.01
2013-10-5,50,50,50,12,12,12,22,22,22,30.24,30.24,16,16,23,0.00
2013-10-7,64,54,49,27,23,21,35,30,22,29.83,29.76,12,2,16,0.00
2013-10-8,68,59,46,34,23,16,49,25,15,29.76,29.46,15,2,15,0.00
2013-10-9,65,53,39,38,31,25,91,46,24,29.70,29.54,20,5,20,0.00
2013-10-10,56,44,35,41,36,23,98,74,47,29.69,29.39,24,4,24,0.05
2013-10-11,58,43,36,38,32,22,96,70,31,29.95,29.45,15,2,15,0.05
2013-10-12,47,40,35,38,35,30,97,82,66,30.11,29.94,24,7,24,0.00
2013-10-13,56,42,30,46,37,29,96,83,53,30.11,29.81,29,6,29,0.09
2013-10-14,52,41,28,41,34,24,98,79,35,30.01,29.66,25,7,25,0.00
2013-10-15,29,28,27,27,26,25,94,91,89,30.05,30.01,18,11,18,0.00
2013-10-17,38,31,30,28,27,26,86,84,65,30.00,29.96,13,2,13,0.00
2013-10-18,37,30,25,27,25,23,93,83,62,30.23,29.95,20,3,20,0.05
2013-10-21,41,38,36,27,25,22,66,60,47,30.21,30.16,3,0,3,0.06
2013-10-22,57,45,36,30,25,22,63,48,29,30.19,30.05,17,2,17,0.00
2013-10-23,61,49,39,32,26,21,65,42,23,30.05,29.95,12,3,12,0.00
2013-10-24,56,42,33,35,31,27,88,66,43,30.15,30.01,12,2,12,0.00
2013-10-25,61,47,29,33,28,23,96,53,24,30.14,30.00,15,4,15,0.00
2013-10-27,45,44,43,22,20,18,41,38,34,29.72,29.70,6,0,6,0.00
2013-10-28,47,36,28,32,27,17,96,74,31,29.92,29.69,20,5,20,0.00
2013-10-29,54,34,23,34,27,22,97,80,35,30.00,29.83,20,2,20,0.02
2013-10-30,48,36,26,32,25,17,97,72,30,29.84,29.71,18,3,18,0.01
2013-10-31,51,36,26,25,17,12,84,48,22,29.90,29.76,21,3,21,0.00
2013-11-1,37,34,28,28,21,16,83,59,47,30.22,29.89,15,3,15,0.00
2013-11-2,52,40,28,24,19,6,85,47,19,30.23,29.77,18,2,18,0.00
2013-11-3,59,48,28,26,16,8,86,30,17,29.78,29.39,27,4,27,0.00
2013-11-4,32,26,20,28,23,18,96,87,69,30.02,29.57,20,5,23,0.00
2013-11-5,33,24,14,26,14,3,95,69,44,30.27,29.91,24,7,24,0.00
2013-11-6,46,31,13,14,10,-1,82,42,25,30.44,30.26,19,3,19,0.00
2013-11-7,50,36,24,19,15,12,62,44,28,30.43,30.06,16,2,16,0.00
2013-11-8,63,50,38,19,13,9,41,24,12,30.06,29.71,25,2,25,0.00
2013-11-9,52,42,34,26,22,16,72,46,34,30.15,29.85,17,2,17,0.00
2013-11-10,60,45,32,28,21,11,80,43,15,30.19,30.08,14,1,14,0.00
2013-11-11,59,41,25,29,19,12,95,49,16,30.44,30.08,17,4,17,0.00
2013-11-12,49,35,23,31,25,17,96,71,40,30.60,30.43,13,2,13,0.00
2013-11-13,60,47,37,17,6,-5,44,21,8,30.44,29.87,12,2,12,0.00
2013-11-14,51,40,31,30,24,7,84,56,21,29.88,29.71,19,5,19,0.00
2013-11-15,53,38,27,27,19,12,90,51,22,29.71,29.36,21,2,21,0.00
2013-11-16,50,39,29,28,19,12,90,46,25,29.43,29.24,24,3,24,0.00
2013-11-17,47,33,23,22,17,14,76,54,28,30.14,29.43,19,4,19,0.00
2013-11-18,54,39,22,14,9,4,61,32,14,30.18,30.05,13,2,13,0.00
2013-11-19,45,39,36,19,17,12,49,40,28,29.69,29.66,7,0,7,0.00
2013-11-20,50,41,32,30,21,18,90,47,31,29.81,29.65,13,2,13,0.00
2013-11-21,33,11,4,30,9,2,93,90,87,30.77,29.80,20,9,20,0.00
2013-11-22,28,20,9,24,17,6,93,88,74,30.85,30.71,15,3,15,0.01
2013-11-23,21,17,15,14,11,1,93,77,50,30.74,30.50,21,4,21,0.00
2013-11-24,34,22,15,28,19,13,97,88,69,30.50,30.10,37,7,37,0.00
2013-11-25,29,25,21,25,19,14,92,76,63,30.41,30.12,41,14,41,0.00
2013-11-26,36,29,24,20,18,16,79,65,48,30.51,30.34,17,4,17,0.00
2013-11-27,44,36,24,16,14,8,72,42,26,30.34,30.07,4,0,4,0.00
2013-11-28,40,31,22,24,20,9,94,66,34,30.18,30.06,16,2,16,0.00
2013-11-29,53,39,22,23,15,12,95,39,22,30.20,30.11,15,2,15,0.00
2013-11-30,51,39,30,16,9,6,49,31,16,30.13,30.03,15,1,15,0.00
2013-12-1,50,39,30,22,13,7,53,34,23,30.09,29.82,14,2,14,0.00
2013-12-2,50,40,34,22,19,16,57,44,30,29.84,29.47,19,3,19,0.00
2013-12-3,50,33,7,25,16,4,93,55,31,29.52,29.28,22,5,22,0.00
2013-12-4,7,-1,-8,4,-4,-12,89,86,83,30.40,29.51,15,5,15,0.00
2013-12-5,1,-5,-8,-2,-8,-12,86,84,83,30.54,30.35,12,1,12,0.00
2013-12-6,1,-5,-11,-2,-9,-15,86,84,82,30.70,30.52,13,1,13,0.00
2013-12-7,8,-1,-6,5,-4,-9,91,86,84,30.66,30.13,16,2,16,0.00
2013-12-8,16,10,1,13,7,-3,93,88,71,30.23,29.98,19,3,19,0.00
2013-12-9,17,10,-2,9,2,-5,88,68,51,30.50,30.21,11,1,11,0.00
2013-12-11,31,24,9,16,8,-5,89,53,22,30.56,30.42,13,1,13,0.00
2013-12-12,55,39,29,9,1,-7,29,20,10,30.53,29.85,15,1,15,0.00
2013-12-13,41,31,20,17,9,-2,74,43,21,30.12,29.72,20,7,20,0.00
2013-12-14,35,24,14,14,12,9,90,61,36,30.39,30.13,11,3,13,0.00
2013-12-15,49,37,27,19,13,5,59,38,24,30.32,30.11,15,2,15,0.00
2013-12-16,54,42,33,16,12,5,42,30,17,30.17,30.03,9,2,9,0.00
2013-12-17,52,40,33,17,13,5,50,33,22,30.26,30.06,10,1,10,0.00
2013-12-18,57,47,41,14,10,5,29,22,13,30.06,29.57,13,1,13,0.00
2013-12-19,51,44,28,22,17,10,74,36,23,29.57,29.35,22,2,22,0.00
2013-12-20,22,19,17,20,18,15,95,93,89,29.82,29.74,12,1,12,0.00
2013-12-21,21,18,16,18,15,14,93,91,89,29.95,29.74,16,8,16,0.00
2013-12-23,33,32,29,18,17,0,58,55,52,30.38,30.34,144,2,144,2.56
2013-12-25,30,23,20,7,7,6,55,49,37,30.47,30.40,9,1,9,0.00
2013-12-26,44,34,26,12,7,0,46,32,22,30.40,30.28,15,3,15,0.00
2013-12-27,46,32,27,15,11,7,45,40,28,30.30,30.26,5,0,5,0.00
2013-12-28,34,23,15,21,18,13,92,83,47,30.02,29.81,24,13,24,0.00
2013-12-29,24,15,10,18,12,7,93,89,68,30.25,30.01,26,6,26,0.00
2013-12-30,36,29,22,16,14,12,67,54,39,30.37,30.22,13,2,13,0.00
2013-12-31,31,27,25,12,11,9,59,50,42,30.22,30.14,5,1,5,0.00
2014-1-1,31,20,13,22,17,10,93,87,68,30.34,30.08,27,6,27,0.00
2014-1-2,35,31,29,16,14,5,55,50,29,30.41,30.13,5,0,5,0.00